Location: Veytaux
(46.4185°N, 6.9320°E)
Time: 07:56:13
(UTC+00:00)

UNK - Pass Details

Date: 27 May 2022
Orbit: 666 x 684 km, 98.2° (Epoch: 01 July)

Event Time Altitude Azimuth Distance (km) Brightness Sun altitude
Exits shadow 01:15:45 19° 151° (SSE) 1,600 5.3 -18.2°
Maximum altitude 01:19:02 66° 73° (ENE) 736 4.0 -17.9°
Drops below altitude 10° 01:23:37 10° 352° (N) 2,121 7.1 -17.5°
Sets 01:25:53 0° 349° (N) 3,043 7.9 -17.4°
